www.pogodaiklimat.ru

Погода и климат >> Архив погоды >> Греция >> Триполис


ПОГОДА в Триполисе

  • Прогноз погоды в Триполисе
  • Монитор погоды в Триполисе

АРХИВ ПОГОДЫ в Триполисе

Время (UTC), дата Ветер
(напр.,м/с)
 
Видим.   Явления Облачность Т
(С)
Тd
(С)
f
(%)
Тe
(С)
Тes
(С)
Комфортность P
(гПа)
Po
(гПа)
Тmin
(С)
Tmax
(С)
R
(мм)
R24
(мм)
S
(см)
00 17.01 штиль 0
{2}
н/о н/о -3.5 -5.5 86 -5 -5 1026.4 945.2
03 17.01
{2}
н/о н/о -4.3 -5.4 92 1026.0 944.7
06 17.01 штиль 0
{2}
10 км ясно -4.8 -5.7 93 -6 -6 1026.4 944.9 -5.3
09 17.01 1
{2}
н/о н/о +5.7 -3.0 54 +6 +6 1023.8 945.4
12 17.01
{3}
н/о н/о +10.3 -3.1 39 1020.2 943.3
15 17.01 З 4
{6}
н/о н/о +9.3 +1.4 58 +7 +7 1020.3 943.1
18 17.01 штиль 0
{6}
10 км 1/0
[Ci fib]
+3.2 0.0 80 +2 +2 1022.8 943.8 +12.2
00 18.01
{3}
н/о н/о -1.6 -2.0 97 1024.2 943.8
03 18.01 штиль 0
{2}
н/о н/о -1.5 -2.3 94 -3 -3 1023.0 942.7
06 18.01 штиль 0 10 км 9/6 750 м
[Cu Sc Ci fib]
+0.4 -0.4 94 -1 -1 1023.1 943.2 -2.1
09 18.01
{4}
н/о н/о +6.6 +2.7 76 1021.9 943.9
12 18.01 ЮЗ 5
{9}
н/о н/о +9.0 +2.6 64 +6 +6 1019.7 942.5
15 18.01 ЮЗ 3
{9}
н/о н/о +8.9 +2.5 64 +7 +7 1019.6 942.4
18 18.01 штиль 0
{4}
10 км ясно +3.8 +1.2 83 +3 +3 1021.8 943.0 +9.5
21 18.01 СЗ 1
{3}
н/о н/о +0.2 -0.3 96 -1 -1 1023.1 943.3
00 19.01
{3}
н/о н/о -0.3 -0.3 100 1022.9 942.9
03 19.01
{2}
н/о н/о -0.4 -0.4 100 1022.4 942.4
06 19.01 штиль 0 8000 м дымка 9/0
[Ac lent Cs]
-1.0 -1.0 100 -2 -2 1022.6 942.4 -1.7
09 19.01
{2}
н/о н/о +3.6 +3.2 97 1022.2 943.4
12 19.01 СВ 2
{3}
н/о в посл. час осадки н/о +6.5 +3.9 83 +5 +5 1019.7 941.8 0.1
15 19.01 штиль 0
{3}
н/о осадки н/о +6.9 +5.5 91 +6 +6 1018.9 941.2
18 19.01 штиль 0
{2}
8000 м дымка {дождь} 10/5 540 м
[Cu Sc As op]
+5.6 +5.2 97 +4 +4 1019.6 941.5 +7.4 0.3
21 19.01
{6}
н/о н/о +6.4 +3.7 83 1019.6 941.8
00 20.01 штиль 0
{5}
н/о н/о +6.2 +4.0 86 +5 +5 1019.4 941.5
03 20.01
{3}
н/о осадки н/о +5.2 +4.6 96 1019.0 940.8
06 20.01 штиль 0 10 км {дождь} 10/8 480 м
[Cu Sc As op]
+4.0 +6.8 100 +3 +3 1019.0 940.5 +3.9 0.3
09 20.01
{3}
н/о н/о +8.1 +5.1 81 1018.5 941.1
12 20.01 В 3
{5}
н/о осадки н/о +5.7 +5.5 99 +2 +2 1017.5 939.6 9
15 20.01 С 2
{3}
н/о осадки н/о +4.4 +4.4 100 +2 +2 1017.4 939.1
18 20.01 штиль 0
{3}
8000 м слаб. дождь 10/8 480 м
[Cu Sc As op]
+4.2 +4.1 99 +3 +3 1017.8 939.4 +9.0 26
21 20.01
{2}
н/о осадки н/о +3.8 +3.8 100 1017.6 939.2
00 21.01 С 3
{5}
н/о в посл. час осадки н/о +3.2 +3.2 100 -1 -1 1016.7 938.2 0.7
03 21.01 штиль 0
{5}
н/о н/о +1.5 +1.5 100 0 0 1017.4 938.4
06 21.01 штиль 0
{2}
200 м туман ?/? +1.2 +1.2 100 -0 -0 1018.8 939.6 +0.9 1
09 21.01 штиль 0
{2}
600 м туман ?/? +3.0 +3.0 100 +2 +2 1019.5 940.7
12 21.01 штиль 0
{3}
10 км {туман} 3/3 300 м
[Cu med, cong]
+11.4 +5.3 66 +11 +16 1015.1 938.9
15 21.01 ЮЗ 2
{6}
н/о н/о +10.7 +2.2 56 +10 +10 1015.5 939.1
18 21.01 ЮВ 2
{5}
10 км 8/3 600 м
[Cu med, cong Ac trans Ci fib]
+6.8 +4.4 85 +5 +5 1017.8 940.1 +13.2
21 21.01
{4}
н/о н/о +5.1 +3.8 91 1018.9 940.8
00 22.01 ЮВ 1
{2}
н/о н/о +1.7 +1.7 100 -0 -0 1019.8 940.6
03 22.01
{2}
н/о н/о +0.3 +0.3 100 1019.2 939.7
06 22.01 штиль 0 4000 м дымка {дождь} 9/5 540 м
[Cu Sc Ac As]
+1.2 +1.1 99 -0 -0 1018.7 939.4 +0.1 0.0
09 22.01 штиль 0
{2}
10 км 4/3 300 м
[Cu med, cong Ac cuf]
+7.0 +7.0 100 +6 +10 1016.9 939.4
12 22.01 Ю 3
{8}
н/о в посл. час осадки н/о +8.7 +5.5 80 +6 +6 1013.9 937.0 0.8
15 22.01
{7}
н/о осадки н/о +7.3 +7.0 98 1012.2 935.2
18 22.01 штиль 0
{5}
10 км слаб. дождь 8/5 540 м
[Cu Sc Ac cuf]
+7.8 +7.3 97 +7 +7 1011.9 935.0 +9.1 7
21 22.01 ЮЗ 6
{9}
н/о осадки н/о +7.3 +5.6 89 +3 +3 1012.0 934.9
00 23.01 СВ 2
{10}
н/о осадки н/о +6.2 +6.1 99 +4 +4 1011.5 934.2 10
03 23.01 Ю 3
{8}
н/о осадки н/о +5.6 +5.6 100 +2 +2 1010.4 933.0
06 23.01 штиль 0 10 км в посл. час дождь 9/5 480 м
[Cu Sc Ac As]
+5.0 +4.9 99 +4 +4 1009.4 931.9 +4.9 24
09 23.01
{5}
н/о осадки н/о +9.5 +7.5 87 1006.8 930.7
12 23.01 Ю 7
{13}
н/о осадки н/о +10.2 +3.8 64 +7 +7 1003.4 927.8 0.9
15 23.01 Ю 8
{17}
н/о {осадки} н/о +10.0 +3.3 63 +6 +6 1000.7 925.2
18 23.01 Ю 5
{16}
8000 м слаб. дождь 10/6 540 м
[Cu Sc As op]
+7.4 +5.3 87 +3 +3 999.5 923.4 +12.3 2
21 23.01 С 1
{13}
н/о осадки н/о +4.5 +4.4 99 +3 +3 1000.0 923.1

 

Местоположение метеостанции Триполис (Греция): широта 37.53 долгота 22.40 высота над уровнем моря 652 м.

В архиве по умолчанию представлена погода в Триполисе за последнюю неделю. Архивные данные за месяц целиком и за предыдущие месяцы, начиная с января 2011 года, Вы можете получить, выбрав интересующий диапазон дат из раскрывающегося списка и нажав кнопку "Ввод!".


*Определитесь, кто Вы:
робот инопланетянин человек

Внимание! Время в таблицах - всемирное. Для получения местного времени необходимо прибавить поправку, которая равна 2 ч.

Смотрите также архив погоды в соседних городах и на ближайших метеорологических станциях:

Погода в Каламате (Греция) (61 км)
Погода в Мефони (Греция) (100 км)
Погода в Андравиде (Греция) (108 км)
Погода в Элефисисе (Греция) (118 км)
Погода в Афинах (Греция) (124 км)
Погода в Татое (Греция) (137 км)
Погода в Элефтериос Венизелос (Греция) (141 км)
Погода на Китире (Греция) (150 км)
Погода в Ламии (Греция) (152 км)
Погода в Кефалонии (Греция) (179 км)

Пояснения к столбцам:

Ветер - указаны скорость ветра в м/с - средняя за 10 мин, порывы в срок и между сроками (в фигурных скобках) и направление, откуда дует ветер: С - северный, СВ - северо-восточный, В - восточный, ЮВ - юго-восточный, Ю - южный, ЮЗ - юго-западный, З - западный, СЗ - северо-западный.
Видимость - горизонтальная дальность видимости в метрах или километрах. При видимости от 1 до 10 км при отсутствии осадков обычно наблюдается дымка, при ухудшении видимости до 1 км и менее - туман. В сухую погоду видимость может ухудшаться дымом, пылью или мглою.
Явления - указаны атмосферные явления, наблюдавшиеся в срок или в последний час перед сроком; фигурными скобками обозначены явления, наблюдавшиеся между сроками (за 1-3 часа до срока); квадратными скобками обозначены град или гололедные отложения с указанием их диаметра в мм.
Облачность - указаны через наклонную черту общая и нижняя облачность в баллах и высота нижней границы облаков в метрах; квадратными скобками обозначены формы облаков: Ci - перистые, Cs - перисто-слоистые, Cc - перисто-кучевые, Ac - высококучевые, As - высокослоистые, Sc - слоисто-кучевые, Ns - слоисто-дождевые, Cu - кучевые, Cb - кучево-дождевые. Подробнее классификацию облаков см. в Атласе облаков (PDF).
T - Температура воздуха - температура, измеренная на высоте 2 м над землей.
Td - Температура точки росы - температура, при понижении до которой содержащийся в воздухе водяной пар достигнет насыщения.
f - Относительная влажность воздуха - влажноcть воздуха, измеренная на высоте 2 м над землей.
Te - Эффективная температура - температура, которую ощущает одетый по сезону человек в тени. Характеристика душности погоды. При расчете учитывается влияние влажности воздуха и скорости ветра на теплоощущения человека.
Tes - Эффективная температура на солнце - температура, которую ощущает человек, с поправкой на солнечный нагрев. Характеристика знойности погоды. Зависит от высоты солнца над горизонтом, облачности и скорости ветра. Ночью, в пасмурную погоду, а также при ветре 12 м/с и более поправка равна нулю.
P - Атмосферное давление - приведенное к уровню моря атмосферное давление.
Po - Атмосферное давление - измеренное на уровне метеостанции атмосферное давление.
Tmin - Минимальная температура - минимум температуры воздуха на высоте 2 м над землей.
Tmax - Максимальная температура - максимум температуры воздуха на высоте 2 м над землей.
R - Количество осадков - Количество выпавших осадков за период времени, мм. При наведении курсора мыши на число - период времени, за который выпало указанное количество осадков.
R24 - Количество осадков - Количество выпавших осадков за 24 часа, мм.
S - Снежный покров - Высота снежного покрова, см. При наведении курсора мыши на число - состояние снежного покрова и степень покрытия местности в баллах.